owner,sensor,date,latitude,longitude,sea_water_turbidity,qcFlag 
SCCF RECON,ioos:station:SCCF:13:1,2016-02-12T19:00:00Z,26.5255,-82.0032,14.65,1111122 
SCCF RECON,ioos:station:SCCF:13:1,2016-02-12T20:00:00Z,26.5255,-82.0032,21.62,1111122 
SCCF RECON,ioos:station:SCCF:13:1,2016-02-12T21:00:00Z,26.5255,-82.0032,19.79,1111122 
SCCF RECON,ioos:station:SCCF:13:1,2016-02-12T22:00:00Z,26.5255,-82.0032,19.05,1111122 
SCCF RECON,ioos:station:SCCF:13:1,2016-02-12T23:00:00Z,26.5255,-82.0032,17.15,1111122 
SCCF RECON,ioos:station:SCCF:13:1,2016-02-13T00:00:00Z,26.5255,-82.0032,13.39,1111122 
SCCF RECON,ioos:station:SCCF:13:1,2016-02-13T01:00:00Z,26.5255,-82.0032,10.23,1111122 
SCCF RECON,ioos:station:SCCF:13:1,2016-02-13T02:00:00Z,26.5255,-82.0032,7.95,1111122 
SCCF RECON,ioos:station:SCCF:13:1,2016-02-13T03:00:00Z,26.5255,-82.0032,6.59,1111122 
SCCF RECON,ioos:station:SCCF:13:1,2016-02-13T04:00:00Z,26.5255,-82.0032,5.89,1111122 
SCCF RECON,ioos:station:SCCF:13:1,2016-02-13T05:00:00Z,26.5255,-82.0032,5.51,1111122 
SCCF RECON,ioos:station:SCCF:13:1,2016-02-13T06:00:00Z,26.5255,-82.0032,5.21,1111122 
SCCF RECON,ioos:station:SCCF:13:1,2016-02-13T07:00:00Z,26.5255,-82.0032,6.96,1111122 
SCCF RECON,ioos:station:SCCF:13:1,2016-02-13T08:00:00Z,26.5255,-82.0032,11.14,1111122 
SCCF RECON,ioos:station:SCCF:13:1,2016-02-13T09:00:00Z,26.5255,-82.0032,18.14,1111122 
SCCF RECON,ioos:station:SCCF:13:1,2016-02-13T10:00:00Z,26.5255,-82.0032,13.73,1111122 
SCCF RECON,ioos:station:SCCF:13:1,2016-02-13T11:00:00Z,26.5255,-82.0032,12.08,1111122 
SCCF RECON,ioos:station:SCCF:13:1,2016-02-13T12:00:00Z,26.5255,-82.0032,12.0,1111122 
SCCF RECON,ioos:station:SCCF:13:1,2016-02-13T13:00:00Z,26.5255,-82.0032,8.23,1111122 
SCCF RECON,ioos:station:SCCF:13:1,2016-02-13T14:00:00Z,26.5255,-82.0032,8.06,1111122 
SCCF RECON,ioos:station:SCCF:13:1,2016-02-13T15:00:00Z,26.5255,-82.0032,6.14,1111122 
SCCF RECON,ioos:station:SCCF:13:1,2016-02-13T16:00:00Z,26.5255,-82.0032,5.78,1111122 
SCCF RECON,ioos:station:SCCF:13:1,2016-02-13T17:00:00Z,26.5255,-82.0032,5.11,1111122 
SCCF RECON,ioos:station:SCCF:13:1,2016-02-13T18:00:00Z,26.5255,-82.0032,5.22,1111122 
SCCF RECON,ioos:station:SCCF:13:1,2016-02-13T19:00:00Z,26.5255,-82.0032,13.42,1111122 
SCCF RECON,ioos:station:SCCF:13:1,2016-02-13T20:00:00Z,26.5255,-82.0032,11.99,1111122 
SCCF RECON,ioos:station:SCCF:13:1,2016-02-13T21:00:00Z,26.5255,-82.0032,14.79,1111122 
SCCF RECON,ioos:station:SCCF:13:1,2016-02-13T22:00:00Z,26.5255,-82.0032,14.28,1111122 
SCCF RECON,ioos:station:SCCF:13:1,2016-02-13T23:00:00Z,26.5255,-82.0032,12.18,1111122 
SCCF RECON,ioos:station:SCCF:13:1,2016-02-14T00:00:00Z,26.5255,-82.0032,11.95,1111122 
SCCF RECON,ioos:station:SCCF:13:1,2016-02-14T01:00:00Z,26.5255,-82.0032,8.16,1111122 
SCCF RECON,ioos:station:SCCF:13:1,2016-02-14T02:00:00Z,26.5255,-82.0032,7.85,1111122 
SCCF RECON,ioos:station:SCCF:13:1,2016-02-14T03:00:00Z,26.5255,-82.0032,6.93,1111122 
SCCF RECON,ioos:station:SCCF:13:1,2016-02-14T04:00:00Z,26.5255,-82.0032,6.54,1111122 
SCCF RECON,ioos:station:SCCF:13:1,2016-02-14T05:00:00Z,26.5255,-82.0032,5.92,1111122 
SCCF RECON,ioos:station:SCCF:13:1,2016-02-14T06:00:00Z,26.5255,-82.0032,6.1,1111122 
SCCF RECON,ioos:station:SCCF:13:1,2016-02-14T07:00:00Z,26.5255,-82.0032,8.27,1111122 
SCCF RECON,ioos:station:SCCF:13:1,2016-02-14T08:00:00Z,26.5255,-82.0032,7.03,1111122 
SCCF RECON,ioos:station:SCCF:13:1,2016-02-14T09:00:00Z,26.5255,-82.0032,6.14,1111122 
SCCF RECON,ioos:station:SCCF:13:1,2016-02-14T10:00:00Z,26.5255,-82.0032,5.36,1111122 
SCCF RECON,ioos:station:SCCF:13:1,2016-02-14T11:00:00Z,26.5255,-82.0032,8.53,1111122 
SCCF RECON,ioos:station:SCCF:13:1,2016-02-14T12:00:00Z,26.5255,-82.0032,8.16,1111122 
SCCF RECON,ioos:station:SCCF:13:1,2016-02-14T13:00:00Z,26.5255,-82.0032,7.05,1111122 
SCCF RECON,ioos:station:SCCF:13:1,2016-02-14T14:00:00Z,26.5255,-82.0032,6.87,1111122 
SCCF RECON,ioos:station:SCCF:13:1,2016-02-14T15:00:00Z,26.5255,-82.0032,5.58,1111122 
SCCF RECON,ioos:station:SCCF:13:1,2016-02-14T16:00:00Z,26.5255,-82.0032,6.96,1111122 
SCCF RECON,ioos:station:SCCF:13:1,2016-02-14T17:00:00Z,26.5255,-82.0032,6.17,1111122 
SCCF RECON,ioos:station:SCCF:13:1,2016-02-14T18:00:00Z,26.5255,-82.0032,6.77,1111122 
SCCF RECON,ioos:station:SCCF:13:1,2016-02-14T19:00:00Z,26.5255,-82.0032,17.79,1111122 
SCCF RECON,ioos:station:SCCF:13:1,2016-02-14T20:00:00Z,26.5255,-82.0032,14.27,1111122 
SCCF RECON,ioos:station:SCCF:13:1,2016-02-14T21:00:00Z,26.5255,-82.0032,15.34,1111122 
SCCF RECON,ioos:station:SCCF:13:1,2016-02-14T22:00:00Z,26.5255,-82.0032,19.87,1111122 
SCCF RECON,ioos:station:SCCF:13:1,2016-02-14T23:00:00Z,26.5255,-82.0032,14.06,1111122 
SCCF RECON,ioos:station:SCCF:13:1,2016-02-15T00:00:00Z,26.5255,-82.0032,12.56,1111122 
SCCF RECON,ioos:station:SCCF:13:1,2016-02-15T01:00:00Z,26.5255,-82.0032,12.78,1111122 
SCCF RECON,ioos:station:SCCF:13:1,2016-02-15T02:00:00Z,26.5255,-82.0032,11.55,1111122 
SCCF RECON,ioos:station:SCCF:13:1,2016-02-15T03:00:00Z,26.5255,-82.0032,7.83,1111122 
SCCF RECON,ioos:station:SCCF:13:1,2016-02-15T04:00:00Z,26.5255,-82.0032,8.91,1111122 
SCCF RECON,ioos:station:SCCF:13:1,2016-02-15T05:00:00Z,26.5255,-82.0032,6.63,1111122 
SCCF RECON,ioos:station:SCCF:13:1,2016-02-15T06:00:00Z,26.5255,-82.0032,6.31,1111122 
SCCF RECON,ioos:station:SCCF:13:1,2016-02-15T07:00:00Z,26.5255,-82.0032,5.67,1111122 
SCCF RECON,ioos:station:SCCF:13:1,2016-02-15T08:00:00Z,26.5255,-82.0032,5.33,1111122 
SCCF RECON,ioos:station:SCCF:13:1,2016-02-15T09:00:00Z,26.5255,-82.0032,4.92,1111122 
SCCF RECON,ioos:station:SCCF:13:1,2016-02-15T10:00:00Z,26.5255,-82.0032,5.22,1111122 
SCCF RECON,ioos:station:SCCF:13:1,2016-02-15T11:00:00Z,26.5255,-82.0032,8.33,1111122 
SCCF RECON,ioos:station:SCCF:13:1,2016-02-15T12:00:00Z,26.5255,-82.0032,12.03,1111122 
SCCF RECON,ioos:station:SCCF:13:1,2016-02-15T13:00:00Z,26.5255,-82.0032,15.9,1111122 
SCCF RECON,ioos:station:SCCF:13:1,2016-02-15T14:00:00Z,26.5255,-82.0032,12.77,1111122 
SCCF RECON,ioos:station:SCCF:13:1,2016-02-15T15:00:00Z,26.5255,-82.0032,9.51,1111122 
SCCF RECON,ioos:station:SCCF:13:1,2016-02-15T16:00:00Z,26.5255,-82.0032,7.88,1111122 
SCCF RECON,ioos:station:SCCF:13:1,2016-02-15T17:00:00Z,26.5255,-82.0032,7.3,1111122 
SCCF RECON,ioos:station:SCCF:13:1,2016-02-15T18:00:00Z,26.5255,-82.0032,6.49,1111122 
SCCF RECON,ioos:station:SCCF:13:1,2016-02-15T19:00:00Z,26.5255,-82.0032,7.75,1111122 
SCCF RECON,ioos:station:SCCF:13:1,2016-02-15T20:00:00Z,26.5255,-82.0032,8.95,1111122 
SCCF RECON,ioos:station:SCCF:13:1,2016-02-15T21:00:00Z,26.5255,-82.0032,11.14,1111122 
SCCF RECON,ioos:station:SCCF:13:1,2016-02-15T22:00:00Z,26.5255,-82.0032,9.95,1111122 
SCCF RECON,ioos:station:SCCF:13:1,2016-02-15T23:00:00Z,26.5255,-82.0032,12.62,1111122 
SCCF RECON,ioos:station:SCCF:13:1,2016-02-16T00:00:00Z,26.5255,-82.0032,12.36,1111122 
SCCF RECON,ioos:station:SCCF:13:1,2016-02-16T01:00:00Z,26.5255,-82.0032,13.06,1111122 
SCCF RECON,ioos:station:SCCF:13:1,2016-02-16T02:00:00Z,26.5255,-82.0032,11.75,1111122 
SCCF RECON,ioos:station:SCCF:13:1,2016-02-16T03:00:00Z,26.5255,-82.0032,9.3,1111122 
SCCF RECON,ioos:station:SCCF:13:1,2016-02-16T04:00:00Z,26.5255,-82.0032,7.29,1111122 
SCCF RECON,ioos:station:SCCF:13:1,2016-02-16T05:00:00Z,26.5255,-82.0032,8.41,1111122 
SCCF RECON,ioos:station:SCCF:13:1,2016-02-16T06:00:00Z,26.5255,-82.0032,6.47,1111122 
SCCF RECON,ioos:station:SCCF:13:1,2016-02-16T07:00:00Z,26.5255,-82.0032,5.96,1111122 
SCCF RECON,ioos:station:SCCF:13:1,2016-02-16T08:00:00Z,26.5255,-82.0032,4.72,1111122 
SCCF RECON,ioos:station:SCCF:13:1,2016-02-16T09:00:00Z,26.5255,-82.0032,4.41,1111122 
SCCF RECON,ioos:station:SCCF:13:1,2016-02-16T10:00:00Z,26.5255,-82.0032,4.34,1111122 
SCCF RECON,ioos:station:SCCF:13:1,2016-02-16T11:00:00Z,26.5255,-82.0032,11.1,1111122 
SCCF RECON,ioos:station:SCCF:13:1,2016-02-16T12:00:00Z,26.5255,-82.0032,15.13,1111122 
SCCF RECON,ioos:station:SCCF:13:1,2016-02-16T13:00:00Z,26.5255,-82.0032,8.04,1111122 
SCCF RECON,ioos:station:SCCF:13:1,2016-02-16T14:00:00Z,26.5255,-82.0032,6.85,1111122 
SCCF RECON,ioos:station:SCCF:13:1,2016-02-16T15:00:00Z,26.5255,-82.0032,12.05,1111122 
SCCF RECON,ioos:station:SCCF:13:1,2016-02-16T16:00:00Z,26.5255,-82.0032,11.16,1111122 
SCCF RECON,ioos:station:SCCF:13:1,2016-02-16T17:00:00Z,26.5255,-82.0032,6.8,1111122 
SCCF RECON,ioos:station:SCCF:13:1,2016-02-16T18:00:00Z,26.5255,-82.0032,5.17,1111122 
SCCF RECON,ioos:station:SCCF:13:1,2016-02-16T19:00:00Z,26.5255,-82.0032,4.39,1111122 
SCCF RECON,ioos:station:SCCF:13:1,2016-02-16T20:00:00Z,26.5255,-82.0032,3.9,1111122 
SCCF RECON,ioos:station:SCCF:13:1,2016-02-16T21:00:00Z,26.5255,-82.0032,4.46,1111122 
SCCF RECON,ioos:station:SCCF:13:1,2016-02-16T22:00:00Z,26.5255,-82.0032,6.15,1111122 
SCCF RECON,ioos:station:SCCF:13:1,2016-02-16T23:00:00Z,26.5255,-82.0032,8.83,1111122 
SCCF RECON,ioos:station:SCCF:13:1,2016-02-17T00:00:00Z,26.5255,-82.0032,16.08,1111122 
SCCF RECON,ioos:station:SCCF:13:1,2016-02-17T01:00:00Z,26.5255,-82.0032,12.8,1111122 
SCCF RECON,ioos:station:SCCF:13:1,2016-02-17T02:00:00Z,26.5255,-82.0032,12.22,1111122 
SCCF RECON,ioos:station:SCCF:13:1,2016-02-17T03:00:00Z,26.5255,-82.0032,8.28,1111122 
SCCF RECON,ioos:station:SCCF:13:1,2016-02-17T04:00:00Z,26.5255,-82.0032,6.25,1111122 
SCCF RECON,ioos:station:SCCF:13:1,2016-02-17T05:00:00Z,26.5255,-82.0032,9.21,1111122 
SCCF RECON,ioos:station:SCCF:13:1,2016-02-17T06:00:00Z,26.5255,-82.0032,6.48,1111122 
SCCF RECON,ioos:station:SCCF:13:1,2016-02-17T07:00:00Z,26.5255,-82.0032,4.45,1111122 
SCCF RECON,ioos:station:SCCF:13:1,2016-02-17T08:00:00Z,26.5255,-82.0032,4.44,1111122 
SCCF RECON,ioos:station:SCCF:13:1,2016-02-17T09:00:00Z,26.5255,-82.0032,4.48,1111122 
SCCF RECON,ioos:station:SCCF:13:1,2016-02-17T10:00:00Z,26.5255,-82.0032,4.21,1111122 
SCCF RECON,ioos:station:SCCF:13:1,2016-02-17T11:00:00Z,26.5255,-82.0032,4.4,1111122 
SCCF RECON,ioos:station:SCCF:13:1,2016-02-17T12:00:00Z,26.5255,-82.0032,3.65,1111122 
SCCF RECON,ioos:station:SCCF:13:1,2016-02-17T13:00:00Z,26.5255,-82.0032,3.72,1111122 
SCCF RECON,ioos:station:SCCF:13:1,2016-02-17T14:00:00Z,26.5255,-82.0032,7.79,1111122 
SCCF RECON,ioos:station:SCCF:13:1,2016-02-17T15:00:00Z,26.5255,-82.0032,13.33,1111122 
SCCF RECON,ioos:station:SCCF:13:1,2016-02-17T16:00:00Z,26.5255,-82.0032,9.34,1111122 
SCCF RECON,ioos:station:SCCF:13:1,2016-02-17T17:00:00Z,26.5255,-82.0032,8.29,1111122 
SCCF RECON,ioos:station:SCCF:13:1,2016-02-17T18:00:00Z,26.5255,-82.0032,7.13,1111122 
SCCF RECON,ioos:station:SCCF:13:1,2016-02-17T19:00:00Z,26.5255,-82.0032,4.64,1111122 
SCCF RECON,ioos:station:SCCF:13:1,2016-02-17T20:00:00Z,26.5255,-82.0032,4.16,1111122 
SCCF RECON,ioos:station:SCCF:13:1,2016-02-17T21:00:00Z,26.5255,-82.0032,4.43,1111122 
SCCF RECON,ioos:station:SCCF:13:1,2016-02-17T22:00:00Z,26.5255,-82.0032,4.6,1111122 
SCCF RECON,ioos:station:SCCF:13:1,2016-02-17T23:00:00Z,26.5255,-82.0032,5.25,1111122 
SCCF RECON,ioos:station:SCCF:13:1,2016-02-18T00:00:00Z,26.5255,-82.0032,7.47,1111122 
SCCF RECON,ioos:station:SCCF:13:1,2016-02-18T01:00:00Z,26.5255,-82.0032,8.27,1111122 
SCCF RECON,ioos:station:SCCF:13:1,2016-02-18T02:00:00Z,26.5255,-82.0032,7.58,1111122 
SCCF RECON,ioos:station:SCCF:13:1,2016-02-18T03:00:00Z,26.5255,-82.0032,6.52,1111122 
SCCF RECON,ioos:station:SCCF:13:1,2016-02-18T04:00:00Z,26.5255,-82.0032,5.98,1111122 
SCCF RECON,ioos:station:SCCF:13:1,2016-02-18T05:00:00Z,26.5255,-82.0032,4.99,1111122 
SCCF RECON,ioos:station:SCCF:13:1,2016-02-18T06:00:00Z,26.5255,-82.0032,6.3,1111122 
SCCF RECON,ioos:station:SCCF:13:1,2016-02-18T07:00:00Z,26.5255,-82.0032,5.79,1111122 
SCCF RECON,ioos:station:SCCF:13:1,2016-02-18T08:00:00Z,26.5255,-82.0032,4.99,1111122 
SCCF RECON,ioos:station:SCCF:13:1,2016-02-18T09:00:00Z,26.5255,-82.0032,5.18,1111122 
SCCF RECON,ioos:station:SCCF:13:1,2016-02-18T10:00:00Z,26.5255,-82.0032,7.18,1111122 
SCCF RECON,ioos:station:SCCF:13:1,2016-02-18T11:00:00Z,26.5255,-82.0032,6.49,1111122 
SCCF RECON,ioos:station:SCCF:13:1,2016-02-18T12:00:00Z,26.5255,-82.0032,6.2,1111122 
SCCF RECON,ioos:station:SCCF:13:1,2016-02-18T13:00:00Z,26.5255,-82.0032,5.55,1111122 
SCCF RECON,ioos:station:SCCF:13:1,2016-02-18T14:00:00Z,26.5255,-82.0032,5.26,1111122 
SCCF RECON,ioos:station:SCCF:13:1,2016-02-18T15:00:00Z,26.5255,-82.0032,5.21,1111122 
SCCF RECON,ioos:station:SCCF:13:1,2016-02-18T16:00:00Z,26.5255,-82.0032,10.04,1111122 
SCCF RECON,ioos:station:SCCF:13:1,2016-02-18T17:00:00Z,26.5255,-82.0032,13.79,1111122 
SCCF RECON,ioos:station:SCCF:13:1,2016-02-18T18:00:00Z,26.5255,-82.0032,9.23,1111122 
SCCF RECON,ioos:station:SCCF:13:1,2016-02-18T19:00:00Z,26.5255,-82.0032,7.56,1111122 
SCCF RECON,ioos:station:SCCF:13:1,2016-02-18T20:00:00Z,26.5255,-82.0032,5.89,1111122 
SCCF RECON,ioos:station:SCCF:13:1,2016-02-18T21:00:00Z,26.5255,-82.0032,5.34,1111122 
SCCF RECON,ioos:station:SCCF:13:1,2016-02-18T22:00:00Z,26.5255,-82.0032,5.41,1111122 
SCCF RECON,ioos:station:SCCF:13:1,2016-02-18T23:00:00Z,26.5255,-82.0032,5.75,1111122 
SCCF RECON,ioos:station:SCCF:13:1,2016-02-19T00:00:00Z,26.5255,-82.0032,11.01,1111122 
SCCF RECON,ioos:station:SCCF:13:1,2016-02-19T01:00:00Z,26.5255,-82.0032,10.62,1111122 
SCCF RECON,ioos:station:SCCF:13:1,2016-02-19T02:00:00Z,26.5255,-82.0032,8.6,1111122 
SCCF RECON,ioos:station:SCCF:13:1,2016-02-19T03:00:00Z,26.5255,-82.0032,6.92,1111122 
SCCF RECON,ioos:station:SCCF:13:1,2016-02-19T04:00:00Z,26.5255,-82.0032,6.74,1111122 
SCCF RECON,ioos:station:SCCF:13:1,2016-02-19T05:00:00Z,26.5255,-82.0032,5.79,1111122 
SCCF RECON,ioos:station:SCCF:13:1,2016-02-19T06:00:00Z,26.5255,-82.0032,4.92,1111122 
SCCF RECON,ioos:station:SCCF:13:1,2016-02-19T07:00:00Z,26.5255,-82.0032,5.55,1111122 
SCCF RECON,ioos:station:SCCF:13:1,2016-02-19T08:00:00Z,26.5255,-82.0032,7.88,1111122 
SCCF RECON,ioos:station:SCCF:13:1,2016-02-19T09:00:00Z,26.5255,-82.0032,6.6,1111122 
SCCF RECON,ioos:station:SCCF:13:1,2016-02-19T10:00:00Z,26.5255,-82.0032,5.62,1111122 
SCCF RECON,ioos:station:SCCF:13:1,2016-02-19T11:00:00Z,26.5255,-82.0032,5.68,1111122 
SCCF RECON,ioos:station:SCCF:13:1,2016-02-19T12:00:00Z,26.5255,-82.0032,5.82,1111122 
SCCF RECON,ioos:station:SCCF:13:1,2016-02-19T13:00:00Z,26.5255,-82.0032,4.94,1111122 
SCCF RECON,ioos:station:SCCF:13:1,2016-02-19T14:00:00Z,26.5255,-82.0032,4.59,1111122 
SCCF RECON,ioos:station:SCCF:13:1,2016-02-19T15:00:00Z,26.5255,-82.0032,5.27,1111122 
SCCF RECON,ioos:station:SCCF:13:1,2016-02-19T16:00:00Z,26.5255,-82.0032,16.31,1111122 
SCCF RECON,ioos:station:SCCF:13:1,2016-02-19T17:00:00Z,26.5255,-82.0032,14.21,1111122 
SCCF RECON,ioos:station:SCCF:13:1,2016-02-19T18:00:00Z,26.5255,-82.0032,10.25,1111122 
SCCF RECON,ioos:station:SCCF:13:1,2016-02-19T19:00:00Z,26.5255,-82.0032,8.83,1111122 
SCCF RECON,ioos:station:SCCF:13:1,2016-02-19T20:00:00Z,26.5255,-82.0032,6.82,1111122 
SCCF RECON,ioos:station:SCCF:13:1,2016-02-19T21:00:00Z,26.5255,-82.0032,6.36,1111122 
SCCF RECON,ioos:station:SCCF:13:1,2016-02-19T22:00:00Z,26.5255,-82.0032,6.0,1111122 
SCCF RECON,ioos:station:SCCF:13:1,2016-02-19T23:00:00Z,26.5255,-82.0032,6.14,1111122 
SCCF RECON,ioos:station:SCCF:13:1,2016-02-20T00:00:00Z,26.5255,-82.0032,5.84,1111122 
SCCF RECON,ioos:station:SCCF:13:1,2016-02-20T01:00:00Z,26.5255,-82.0032,6.31,1111122 
SCCF RECON,ioos:station:SCCF:13:1,2016-02-20T02:00:00Z,26.5255,-82.0032,7.93,1111122 
SCCF RECON,ioos:station:SCCF:13:1,2016-02-20T03:00:00Z,26.5255,-82.0032,6.82,1111122 
SCCF RECON,ioos:station:SCCF:13:1,2016-02-20T04:00:00Z,26.5255,-82.0032,7.81,1111122 
SCCF RECON,ioos:station:SCCF:13:1,2016-02-20T05:00:00Z,26.5255,-82.0032,9.01,1111122 
SCCF RECON,ioos:station:SCCF:13:1,2016-02-20T06:00:00Z,26.5255,-82.0032,7.8,1111122 
SCCF RECON,ioos:station:SCCF:13:1,2016-02-20T07:00:00Z,26.5255,-82.0032,6.04,1111122 
SCCF RECON,ioos:station:SCCF:13:1,2016-02-20T08:00:00Z,26.5255,-82.0032,5.48,1111122 
SCCF RECON,ioos:station:SCCF:13:1,2016-02-20T09:00:00Z,26.5255,-82.0032,6.72,1111122 
SCCF RECON,ioos:station:SCCF:13:1,2016-02-20T10:00:00Z,26.5255,-82.0032,5.94,1111122 
SCCF RECON,ioos:station:SCCF:13:1,2016-02-20T11:00:00Z,26.5255,-82.0032,5.81,1111122 
SCCF RECON,ioos:station:SCCF:13:1,2016-02-20T12:00:00Z,26.5255,-82.0032,5.53,1111122 
SCCF RECON,ioos:station:SCCF:13:1,2016-02-20T13:00:00Z,26.5255,-82.0032,5.03,1111122 
SCCF RECON,ioos:station:SCCF:13:1,2016-02-20T14:00:00Z,26.5255,-82.0032,4.45,1111122 
SCCF RECON,ioos:station:SCCF:13:1,2016-02-20T15:00:00Z,26.5255,-82.0032,6.09,1111122 
SCCF RECON,ioos:station:SCCF:13:1,2016-02-20T16:00:00Z,26.5255,-82.0032,12.18,1111122 
SCCF RECON,ioos:station:SCCF:13:1,2016-02-20T17:00:00Z,26.5255,-82.0032,11.46,1111122 
SCCF RECON,ioos:station:SCCF:13:1,2016-02-20T18:00:00Z,26.5255,-82.0032,9.5,1111122 
SCCF RECON,ioos:station:SCCF:13:1,2016-02-20T19:00:00Z,26.5255,-82.0032,7.61,1111122 
SCCF RECON,ioos:station:SCCF:13:1,2016-02-20T20:00:00Z,26.5255,-82.0032,6.89,1111122 
SCCF RECON,ioos:station:SCCF:13:1,2016-02-20T21:00:00Z,26.5255,-82.0032,5.65,1111122 
SCCF RECON,ioos:station:SCCF:13:1,2016-02-20T22:00:00Z,26.5255,-82.0032,4.89,1111122 
SCCF RECON,ioos:station:SCCF:13:1,2016-02-20T23:00:00Z,26.5255,-82.0032,4.77,1111122 
SCCF RECON,ioos:station:SCCF:13:1,2016-02-21T00:00:00Z,26.5255,-82.0032,4.63,1111122 
SCCF RECON,ioos:station:SCCF:13:1,2016-02-21T01:00:00Z,26.5255,-82.0032,5.06,1111122 
SCCF RECON,ioos:station:SCCF:13:1,2016-02-21T02:00:00Z,26.5255,-82.0032,6.89,1111122 
SCCF RECON,ioos:station:SCCF:13:1,2016-02-21T03:00:00Z,26.5255,-82.0032,8.24,1111122 
SCCF RECON,ioos:station:SCCF:13:1,2016-02-21T04:00:00Z,26.5255,-82.0032,6.97,1111122 
SCCF RECON,ioos:station:SCCF:13:1,2016-02-21T05:00:00Z,26.5255,-82.0032,7.03,1111122 
SCCF RECON,ioos:station:SCCF:13:1,2016-02-21T06:00:00Z,26.5255,-82.0032,5.95,1111122 
SCCF RECON,ioos:station:SCCF:13:1,2016-02-21T07:00:00Z,26.5255,-82.0032,5.72,1111122 
SCCF RECON,ioos:station:SCCF:13:1,2016-02-21T08:00:00Z,26.5255,-82.0032,4.38,1111122 
SCCF RECON,ioos:station:SCCF:13:1,2016-02-21T09:00:00Z,26.5255,-82.0032,6.05,1111122 
SCCF RECON,ioos:station:SCCF:13:1,2016-02-21T10:00:00Z,26.5255,-82.0032,5.14,1111122 
SCCF RECON,ioos:station:SCCF:13:1,2016-02-21T11:00:00Z,26.5255,-82.0032,5.04,1111122 
SCCF RECON,ioos:station:SCCF:13:1,2016-02-21T12:00:00Z,26.5255,-82.0032,4.98,1111122 
SCCF RECON,ioos:station:SCCF:13:1,2016-02-21T13:00:00Z,26.5255,-82.0032,5.11,1111122 
SCCF RECON,ioos:station:SCCF:13:1,2016-02-21T14:00:00Z,26.5255,-82.0032,4.7,1111122 
SCCF RECON,ioos:station:SCCF:13:1,2016-02-21T15:00:00Z,26.5255,-82.0032,4.39,1111122 
SCCF RECON,ioos:station:SCCF:13:1,2016-02-21T16:00:00Z,26.5255,-82.0032,6.46,1111122 
SCCF RECON,ioos:station:SCCF:13:1,2016-02-21T17:00:00Z,26.5255,-82.0032,7.98,1111122 
SCCF RECON,ioos:station:SCCF:13:1,2016-02-21T18:00:00Z,26.5255,-82.0032,8.25,1111122 
SCCF RECON,ioos:station:SCCF:13:1,2016-02-21T19:00:00Z,26.5255,-82.0032,6.96,1111122 
SCCF RECON,ioos:station:SCCF:13:1,2016-02-21T20:00:00Z,26.5255,-82.0032,7.47,1111122 
SCCF RECON,ioos:station:SCCF:13:1,2016-02-21T21:00:00Z,26.5255,-82.0032,5.94,1111122 
SCCF RECON,ioos:station:SCCF:13:1,2016-02-21T22:00:00Z,26.5255,-82.0032,5.7,1111122 
SCCF RECON,ioos:station:SCCF:13:1,2016-02-21T23:00:00Z,26.5255,-82.0032,5.23,1111122 
SCCF RECON,ioos:station:SCCF:13:1,2016-02-22T00:00:00Z,26.5255,-82.0032,4.8,1111122 
SCCF RECON,ioos:station:SCCF:13:1,2016-02-22T01:00:00Z,26.5255,-82.0032,4.27,1111122 
SCCF RECON,ioos:station:SCCF:13:1,2016-02-22T02:00:00Z,26.5255,-82.0032,4.93,1111122 
SCCF RECON,ioos:station:SCCF:13:1,2016-02-22T03:00:00Z,26.5255,-82.0032,6.15,1111122 
SCCF RECON,ioos:station:SCCF:13:1,2016-02-22T04:00:00Z,26.5255,-82.0032,8.22,1111122 
SCCF RECON,ioos:station:SCCF:13:1,2016-02-22T05:00:00Z,26.5255,-82.0032,6.55,1111122 
SCCF RECON,ioos:station:SCCF:13:1,2016-02-22T06:00:00Z,26.5255,-82.0032,6.39,1111122 
SCCF RECON,ioos:station:SCCF:13:1,2016-02-22T07:00:00Z,26.5255,-82.0032,6.67,1111122 
SCCF RECON,ioos:station:SCCF:13:1,2016-02-22T08:00:00Z,26.5255,-82.0032,5.91,1111122 
SCCF RECON,ioos:station:SCCF:13:1,2016-02-22T09:00:00Z,26.5255,-82.0032,4.11,1111122 
SCCF RECON,ioos:station:SCCF:13:1,2016-02-22T10:00:00Z,26.5255,-82.0032,5.51,1111122 
SCCF RECON,ioos:station:SCCF:13:1,2016-02-22T11:00:00Z,26.5255,-82.0032,4.68,1111122 
SCCF RECON,ioos:station:SCCF:13:1,2016-02-22T12:00:00Z,26.5255,-82.0032,4.82,1111122 
SCCF RECON,ioos:station:SCCF:13:1,2016-02-22T13:00:00Z,26.5255,-82.0032,4.99,1111122 
SCCF RECON,ioos:station:SCCF:13:1,2016-02-22T14:00:00Z,26.5255,-82.0032,4.83,1111122 
SCCF RECON,ioos:station:SCCF:13:1,2016-02-22T15:00:00Z,26.5255,-82.0032,4.75,1111122 
SCCF RECON,ioos:station:SCCF:13:1,2016-02-22T16:00:00Z,26.5255,-82.0032,5.71,1111122 
SCCF RECON,ioos:station:SCCF:13:1,2016-02-22T17:00:00Z,26.5255,-82.0032,8.31,1111122 
SCCF RECON,ioos:station:SCCF:13:1,2016-02-22T18:00:00Z,26.5255,-82.0032,8.59,1111122 
SCCF RECON,ioos:station:SCCF:13:1,2016-02-22T19:00:00Z,26.5255,-82.0032,6.87,1111122 
SCCF RECON,ioos:station:SCCF:13:1,2016-02-22T20:00:00Z,26.5255,-82.0032,5.81,1111122 
SCCF RECON,ioos:station:SCCF:13:1,2016-02-22T21:00:00Z,26.5255,-82.0032,5.39,1111122 
SCCF RECON,ioos:station:SCCF:13:1,2016-02-22T22:00:00Z,26.5255,-82.0032,5.58,1111122 
SCCF RECON,ioos:station:SCCF:13:1,2016-02-22T23:00:00Z,26.5255,-82.0032,4.23,1111122 
SCCF RECON,ioos:station:SCCF:13:1,2016-02-23T00:00:00Z,26.5255,-82.0032,5.24,1111122 
SCCF RECON,ioos:station:SCCF:13:1,2016-02-23T01:00:00Z,26.5255,-82.0032,4.71,1111122 
SCCF RECON,ioos:station:SCCF:13:1,2016-02-23T02:00:00Z,26.5255,-82.0032,4.39,1111122 
SCCF RECON,ioos:station:SCCF:13:1,2016-02-23T03:00:00Z,26.5255,-82.0032,5.57,1111122 
SCCF RECON,ioos:station:SCCF:13:1,2016-02-23T04:00:00Z,26.5255,-82.0032,5.29,1111122 
SCCF RECON,ioos:station:SCCF:13:1,2016-02-23T05:00:00Z,26.5255,-82.0032,6.84,1111122 
SCCF RECON,ioos:station:SCCF:13:1,2016-02-23T06:00:00Z,26.5255,-82.0032,7.96,1111122 
SCCF RECON,ioos:station:SCCF:13:1,2016-02-23T07:00:00Z,26.5255,-82.0032,8.15,1111122 
SCCF RECON,ioos:station:SCCF:13:1,2016-02-23T08:00:00Z,26.5255,-82.0032,6.73,1111122 
SCCF RECON,ioos:station:SCCF:13:1,2016-02-23T09:00:00Z,26.5255,-82.0032,5.44,1111122 
SCCF RECON,ioos:station:SCCF:13:1,2016-02-23T10:00:00Z,26.5255,-82.0032,5.08,1111122 
SCCF RECON,ioos:station:SCCF:13:1,2016-02-23T11:00:00Z,26.5255,-82.0032,4.88,1111122 
SCCF RECON,ioos:station:SCCF:13:1,2016-02-23T12:00:00Z,26.5255,-82.0032,4.81,1111122 
SCCF RECON,ioos:station:SCCF:13:1,2016-02-23T13:00:00Z,26.5255,-82.0032,5.01,1111122 
SCCF RECON,ioos:station:SCCF:13:1,2016-02-23T14:00:00Z,26.5255,-82.0032,4.87,1111122 
SCCF RECON,ioos:station:SCCF:13:1,2016-02-23T15:00:00Z,26.5255,-82.0032,4.53,1111122 
SCCF RECON,ioos:station:SCCF:13:1,2016-02-23T16:00:00Z,26.5255,-82.0032,4.73,1111122 
SCCF RECON,ioos:station:SCCF:13:1,2016-02-23T17:00:00Z,26.5255,-82.0032,6.75,1111122 
SCCF RECON,ioos:station:SCCF:13:1,2016-02-23T18:00:00Z,26.5255,-82.0032,7.34,1111122 
SCCF RECON,ioos:station:SCCF:13:1,2016-02-23T19:00:00Z,26.5255,-82.0032,9.25,1111122 
SCCF RECON,ioos:station:SCCF:13:1,2016-02-23T20:00:00Z,26.5255,-82.0032,11.22,1111122 
SCCF RECON,ioos:station:SCCF:13:1,2016-02-23T21:00:00Z,26.5255,-82.0032,7.28,1111122 
SCCF RECON,ioos:station:SCCF:13:1,2016-02-23T22:00:00Z,26.5255,-82.0032,6.95,1111122 
SCCF RECON,ioos:station:SCCF:13:1,2016-02-23T23:00:00Z,26.5255,-82.0032,5.05,1111122 
SCCF RECON,ioos:station:SCCF:13:1,2016-02-24T00:00:00Z,26.5255,-82.0032,6.43,1111122 
SCCF RECON,ioos:station:SCCF:13:1,2016-02-24T01:00:00Z,26.5255,-82.0032,4.66,1111122 
SCCF RECON,ioos:station:SCCF:13:1,2016-02-24T02:00:00Z,26.5255,-82.0032,4.13,1111122 
SCCF RECON,ioos:station:SCCF:13:1,2016-02-24T03:00:00Z,26.5255,-82.0032,4.17,1111122 
SCCF RECON,ioos:station:SCCF:13:1,2016-02-24T04:00:00Z,26.5255,-82.0032,5.39,1111122 
SCCF RECON,ioos:station:SCCF:13:1,2016-02-24T05:00:00Z,26.5255,-82.0032,7.15,1111122 
SCCF RECON,ioos:station:SCCF:13:1,2016-02-24T06:00:00Z,26.5255,-82.0032,9.33,1111122 
SCCF RECON,ioos:station:SCCF:13:1,2016-02-24T07:00:00Z,26.5255,-82.0032,10.82,1111122 